Weather observations for the past three days for
Buckland, Buckland Airport
| Date | Time (akdt) | Wind (mph) | Vis. (mi.) | Weather | Sky Cond. | Temperature (ºF) | Relative Humidity | Wind Chill (°F) | Heat Index (°F) | Pressure | Precipitation (in) | ||||||
|---|---|---|---|---|---|---|---|---|---|---|---|---|---|---|---|---|---|
| Air | Dwpt | 6 hour | altimeter (in) | sea level (mb) | 1 hr | 3 hr | 6 hr | ||||||||||
| Max. | Min. | ||||||||||||||||
| 10 | 12:56 | Calm | 10.00 | Mostly Cloudy | BKN075 | 46 | 28 | 50% | 29.49 | 998.8 | |||||||
| 10 | 11:56 | S 8 | 10.00 | Fair | CLR | 46 | 27 | 47% | 42 | 29.49 | 998.9 | ||||||
| 10 | 10:56 | N 9 | 10.00 | Fair | CLR | 44.1 | 27 | 51% | 40 | 29.49 | 998.8 | ||||||
| 10 | 09:56 | NW 8 | 10.00 | Mostly Cloudy | BKN046 | 39.9 | 26.1 | 41 | 32 | 58% | 35 | 29.5 | 999.0 | ||||
| 10 | 08:56 | Calm | 10.00 | Fair | CLR | 37.9 | 25 | 60% | 29.51 | 999.5 | |||||||
| 10 | 07:56 | W 5 | 10.00 | A Few Clouds | FEW085 | 36 | 25 | 64% | 33 | 29.51 | 999.5 | ||||||
| 10 | 06:56 | SE 8 | 10.00 | Overcast | OVC085 | 34 | 26.1 | 73% | 28 | 29.51 | 999.5 | ||||||
| 10 | 05:56 | Calm | 10.00 | Overcast | OVC044 | 35.1 | 25 | 67% | 29.51 | 999.5 | |||||||
| 10 | 04:56 | Calm | 10.00 | Overcast | OVC042 | 35.1 | 26.1 | 70% | 29.53 | 1000.0 | |||||||
| 10 | 03:56 | Calm | 10.00 | Overcast | BKN038 OVC050 | 35.1 | 25 | 36 | 33.1 | 67% | 29.53 | 1000.1 | |||||
| 10 | 02:56 | SW 5 | 10.00 | Overcast | OVC050 | 35.1 | 25 | 67% | 32 | 29.53 | 1000.2 | ||||||
| 10 | 01:56 | W 6 | 10.00 | Overcast | OVC060 | 33.1 | 25 | 72% | 28 | 29.54 | 1000.4 | ||||||
| 10 | 00:56 | NW 8 | 10.00 | Partly Cloudy | SCT050 | 35.1 | 24.1 | 64% | 29 | 29.53 | 1000.3 | ||||||
| 09 | 23:56 | NW 8 | 10.00 | Overcast | OVC050 | 35.1 | 24.1 | 64% | 29 | 29.53 | 1000.2 | ||||||
| 09 | 22:56 | NW 6 | 10.00 | Overcast | OVC050 | 35.1 | 24.1 | 64% | 31 | 29.54 | 1000.5 | ||||||
| 09 | 21:56 | NW 12 | 10.00 | Overcast | OVC050 | 36 | 23 | 39.9 | 36 | 59% | 29 | 29.53 | 1000.3 | ||||
| 09 | 20:56 | N 13 | 10.00 | Overcast | OVC050 | 37.9 | 21 | 51% | 31 | 29.54 | 1000.3 | ||||||
| 09 | 19:56 | N 12 | 10.00 | Mostly Cloudy | BKN055 | 39 | 19.9 | 46% | 32 | 29.54 | 1000.5 | ||||||
| 09 | 18:56 | NW 13 | 10.00 | Fair | CLR | 39 | 19.9 | 46% | 32 | 29.54 | 1000.5 | ||||||
| 09 | 16:56 | N 15 | 10.00 | Fair | CLR | 36 | 17.1 | 46% | 27 | 29.56 | 1001.3 | ||||||
| 09 | 15:56 | N 14 | 10.00 | Fair | CLR | 36 | 17.1 | 36 | 28 | 46% | 28 | 29.58 | 1001.8 | ||||
| 09 | 14:56 | N 16 | 10.00 | Fair | CLR | 36 | 16 | 44% | 27 | 29.59 | 1002.3 | ||||||
| 09 | 13:56 | N 14 G 23 | 10.00 | Fair | CLR | 35.1 | 16 | 46% | 27 | 29.61 | 0.0 | ||||||
| 09 | 12:56 | NW 12 | 10.00 | Fair | CLR | 34 | 16 | 48% | 26 | 29.61 | 0.0 | ||||||
| 09 | 11:56 | N 14 | 10.00 | Fair | CLR | 33.1 | 17.1 | 52% | 24 | 29.62 | 0.0 | ||||||
| 09 | 10:56 | NW 12 | 10.00 | Fair | CLR | 30.9 | 21 | 67% | 22 | 29.64 | 0.0 | ||||||
| 09 | 09:56 | NW 16 | 10.00 | Fair | CLR | 28 | 21.9 | 28 | 19 | 78% | 17 | 29.66 | 0.0 | ||||
| 09 | 08:56 | NW 14 | 10.00 | Fair | CLR | 27 | 21 | 78% | 16 | 29.67 | 0.0 | ||||||
| 09 | 07:56 | NW 13 | 10.00 | Fair | CLR | 24.1 | 19.9 | 84% | 13 | 29.67 | 0.0 | ||||||
| 09 | 06:56 | NW 6 | 10.00 | Fair | CLR | 21 | 18 | 88% | 14 | 29.69 | 0.0 | ||||||
| 09 | 05:56 | NW 8 | 10.00 | A Few Clouds | FEW055 | 19.9 | 18 | 92% | 11 | 29.71 | 0.0 | ||||||
| 09 | 04:56 | NW 8 | 10.00 | Fair | CLR | 19.9 | 19 | 96% | 11 | 29.72 | 0.0 | ||||||
| 09 | 03:56 | N 10 | 10.00 | Fair | CLR | 21 | 19 | 92% | 11 | 29.73 | 0.0 | ||||||
| 09 | 02:56 | NW 10 | 10.00 | Fair | CLR | 21.9 | 19.9 | 92% | 12 | 29.74 | 0.0 | ||||||
| 08 | 23:56 | NW 10 | 10.00 | Overcast | OVC009 | 25 | 21.9 | 88% | 16 | 29.78 | 1008.7 | ||||||
| 08 | 22:56 | NW 12 | 10.00 | Mostly Cloudy | BKN011 | 25 | 21.9 | 88% | 15 | 29.81 | 1009.5 | ||||||
| 08 | 21:56 | NW 14 | 10.00 | Fair | CLR | 27 | 23 | 32 | 27 | 85% | 16 | 29.82 | 1009.9 | ||||
| 08 | 20:56 | NW 16 | 10.00 | Fair | CLR | 28.9 | 23 | 78% | 18 | 29.83 | 1010.4 | ||||||
| 08 | 19:56 | NW 15 | 10.00 | Fair | CLR | 30.9 | 21.9 | 69% | 21 | 29.85 | 1011.1 | ||||||
| 08 | 18:56 | NW 18 G 23 | 10.00 | Fair | CLR | 32 | 21 | 64% | 21 | 29.87 | 1011.7 | ||||||
| 08 | 17:56 | W 16 | 10.00 | Fair | CLR | 32 | 21 | 64% | 22 | 29.9 | 1012.7 | ||||||
| 08 | 16:56 | NW 17 | 10.00 | Fair | CLR | 30.9 | 21 | 67% | 20 | 29.93 | 1013.7 | ||||||
| 08 | 15:56 | NW 16 | 10.00 | Fair | CLR | 30 | 21.9 | 30.9 | 19.9 | 72% | 19 | 29.96 | 1014.6 | ||||
| 08 | 14:56 | W 16 | 10.00 | A Few Clouds | FEW013 | 30 | 21.9 | 72% | 19 | 29.98 | 1015.4 | ||||||
| 08 | 13:56 | NW 15 | 10.00 | Mostly Cloudy | BKN011 | 28 | 21.9 | 78% | 17 | 30.01 | 1016.4 | ||||||
| 08 | 12:56 | NW 14 | 10.00 | Overcast | OVC009 | 26.1 | 21 | 81% | 15 | 30.03 | 1017.1 | ||||||
| 08 | 11:56 | NW 13 | 10.00 | Overcast | OVC005 | 23 | 21 | 92% | 12 | 30.05 | 1017.6 | ||||||
| 08 | 10:56 | NW 14 | 10.00 | Overcast | OVC003 | 21.9 | 19.9 | 92% | 10 | 30.07 | 1018.3 | ||||||
| 08 | 09:56 | NW 13 | 9.00 | Overcast | OVC003 | 19.9 | 19 | 24.1 | 19 | 96% | 8 | 30.08 | 1018.9 | ||||
| 08 | 08:56 | NW 15 | 7.00 | Overcast | OVC003 | 19 | 18 | 96% | 6 | 30.09 | 1019.1 | ||||||
| 08 | 07:56 | NW 17 | 7.00 | Overcast | OVC003 | 19 | 17.1 | 92% | 5 | 30.1 | 1019.3 | ||||||
| 08 | 06:56 | NW 12 | 4.00 | Fog/Mist | BKN003 | 19 | 18 | 96% | 8 | 30.1 | 1019.4 | ||||||
| 08 | 05:56 | NW 8 | 10.00 | Fair | CLR | 19 | 17.1 | 92% | 10 | 30.11 | 1019.8 | ||||||
| 08 | 04:56 | NW 9 | 10.00 | Mostly Cloudy | BKN060 | 21.9 | 19 | 89% | 13 | 30.11 | 1019.8 | ||||||
| 08 | 03:56 | NW 9 | 10.00 | Overcast | OVC060 | 24.1 | 19.9 | 28.9 | 24.1 | 84% | 15 | 30.12 | 1020.1 | ||||
| 08 | 02:56 | NW 9 | 10.00 | Overcast | OVC060 | 24.1 | 19.9 | 84% | 15 | 30.13 | 1020.4 | ||||||
| 08 | 01:56 | NW 10 | 10.00 | Overcast | OVC060 | 25 | 21 | 85% | 16 | 30.13 | 1020.6 | ||||||
| 08 | 00:56 | NW 7 | 10.00 | Overcast | OVC060 | 25 | 21 | 85% | 18 | 30.14 | 1020.6 | ||||||
| 07 | 23:56 | NW 8 | 10.00 | Partly Cloudy | SCT060 | 25 | 21 | 85% | 17 | 30.14 | 1020.8 | ||||||
| 07 | 22:56 | NW 10 | 10.00 | Fair | CLR | 27 | 21 | 78% | 18 | 30.14 | 1020.6 | ||||||
| 07 | 21:56 | NW 14 | 10.00 | Fair | CLR | 28.9 | 21 | 33.1 | 28.9 | 72% | 19 | 30.13 | 1020.6 | ||||
| 07 | 20:56 | NW 13 | 10.00 | A Few Clouds | FEW055 | 30.9 | 19.9 | 64% | 22 | 30.13 | 1020.5 | ||||||
| 07 | 19:56 | NW 12 | 9.00 | Light Snow | BKN034 OVC041 | 30.9 | 19.9 | 64% | 22 | 30.14 | 1020.7 | ||||||
| 07 | 18:56 | NW 13 | 10.00 | Mostly Cloudy | BKN060 | 30.9 | 19.9 | 64% | 22 | 30.14 | 1020.8 | ||||||
| 07 | 17:56 | NW 13 | 10.00 | Partly Cloudy | SCT050 | 30.9 | 19 | 61% | 22 | 30.14 | 1020.6 | ||||||
| 07 | 16:56 | W 10 | 10.00 | Mostly Cloudy | BKN041 | 30.9 | 19 | 61% | 23 | 30.14 | 1020.7 | ||||||
| 07 | 15:56 | NW 10 | 10.00 | Mostly Cloudy | BKN035 | 32 | 19 | 35.1 | 24.1 | 59% | 24 | 30.15 | 1021.0 | ||||
| 07 | 14:56 | NW 8 | 10.00 | Mostly Cloudy | BKN031 | 33.1 | 18 | 54% | 27 | 30.15 | 1021.1 | ||||||
| 07 | 13:56 | W 10 G 16 | 10.00 | Fair | CLR | 30.9 | 19 | 61% | 23 | 30.15 | 1021.1 | ||||||
| Date | Time (akdt) | Wind (mph) | Vis. (mi.) | Weather | Sky Cond. | Air | Dwpt | Max. | Min. | Relative Humidity | Wind Chill (°F) | Heat Index (°F) | altimeter (in) | sea level (mb) | 1 hr | 3 hr | 6 hr |
| 6 hour | |||||||||||||||||
| Temperature (ºF) | Pressure | Precipitation (in) | |||||||||||||||